TAIP14 YMES-YCBG

Flight info

Callsign TAIP14
Flight time N/A
Altitude 7000
Route ANTLA
Aircraft H145/L-SDFGRY/C

Departure

Time 2026-04-22 23:41
Airport RAAF Base East Sale (YMES)

Arrival

Time N/A
Airport Cambridge Aerodrome (YCBG)
Time Latitude Longitude Altitude Speed Heading
2026-04-22 23:40 -38.20092 147.15054 5519 ft 102 kts 174°
2026-04-22 23:41 -38.20809 147.15073 5736 ft 103 kts 174°
2026-04-22 23:41 -38.21529 147.15088 5993 ft 103 kts 175°
2026-04-22 23:41 -38.22238 147.15102 6256 ft 101 kts 173°
2026-04-22 23:41 -38.22960 147.15117 6461 ft 105 kts 173°
2026-04-22 23:42 -38.23685 147.15129 6707 ft 104 kts 173°
2026-04-22 23:42 -38.24471 147.15149 6783 ft 116 kts 174°
2026-04-22 23:42 -38.25281 147.15170 6935 ft 117 kts 174°
2026-04-22 23:42 -38.26101 147.15192 7057 ft 120 kts 174°
2026-04-22 23:43 -38.26933 147.15213 7210 ft 119 kts 174°
2026-04-22 23:43 -38.27774 147.15236 7237 ft 127 kts 174°
2026-04-22 23:43 -38.28696 147.15277 7114 ft 136 kts 173°
2026-04-22 23:43 -38.29654 147.15334 6979 ft 137 kts 171°
2026-04-22 23:44 -38.30568 147.15389 6964 ft 127 kts 171°
2026-04-22 23:44 -38.31440 147.15422 6999 ft 123 kts 173°
2026-04-22 23:44 -38.32305 147.15436 6986 ft 123 kts 173°
2026-04-22 23:44 -38.33163 147.15445 6987 ft 124 kts 174°
2026-04-22 23:45 -38.34021 147.15456 6987 ft 124 kts 173°
2026-04-22 23:45 -38.34896 147.15468 6993 ft 125 kts 173°
2026-04-22 23:45 -38.35764 147.15486 6986 ft 125 kts 173°
2026-04-22 23:45 -38.36636 147.15505 6985 ft 124 kts 173°
2026-04-22 23:46 -38.37505 147.15523 6987 ft 124 kts 173°
2026-04-22 23:46 -38.38383 147.15530 6998 ft 129 kts 175°
2026-04-22 23:46 -38.39295 147.15538 6984 ft 131 kts 174°
2026-04-22 23:46 -38.40214 147.15549 6996 ft 133 kts 175°
2026-04-22 23:47 -38.41145 147.15567 6988 ft 134 kts 174°
2026-04-22 23:47 -38.42084 147.15587 6992 ft 133 kts 173°
2026-04-22 23:47 -38.42997 147.15613 6992 ft 131 kts 174°
2026-04-22 23:47 -38.43911 147.15637 6984 ft 129 kts 173°
2026-04-22 23:48 -38.44802 147.15657 6990 ft 130 kts 173°
2026-04-22 23:48 -38.45725 147.15677 6979 ft 131 kts 174°
2026-04-22 23:48 -38.46626 147.15697 6990 ft 129 kts 173°
2026-04-22 23:48 -38.47537 147.15714 6989 ft 130 kts 174°
2026-04-22 23:49 -38.48446 147.15732 6988 ft 130 kts 173°
2026-04-22 23:49 -38.49341 147.15750 6987 ft 130 kts 174°
2026-04-22 23:49 -38.50248 147.15768 6986 ft 129 kts 174°
2026-04-22 23:49 -38.51155 147.15785 6988 ft 130 kts 174°
2026-04-22 23:50 -38.52054 147.15802 6988 ft 130 kts 174°
2026-04-22 23:50 -38.52967 147.15819 6991 ft 131 kts 174°
2026-04-22 23:50 -38.53885 147.15837 6989 ft 131 kts 174°
2026-04-22 23:50 -38.54805 147.15855 6987 ft 132 kts 174°
2026-04-22 23:51 -38.55714 147.15875 6982 ft 131 kts 173°
2026-04-22 23:51 -38.56633 147.15894 6990 ft 131 kts 174°
2026-04-22 23:51 -38.57550 147.15912 6985 ft 132 kts 173°
2026-04-22 23:51 -38.58466 147.15930 6984 ft 131 kts 173°
2026-04-22 23:52 -38.59390 147.15950 6976 ft 133 kts 174°
2026-04-22 23:52 -38.60304 147.15970 6981 ft 132 kts 174°
2026-04-22 23:52 -38.61230 147.15994 6981 ft 131 kts 173°
2026-04-22 23:52 -38.62143 147.16019 6987 ft 130 kts 174°
2026-04-22 23:53 -38.63050 147.16040 6986 ft 131 kts 174°
2026-04-22 23:53 -38.63959 147.16060 6985 ft 131 kts 174°
2026-04-22 23:53 -38.64877 147.16078 6986 ft 131 kts 174°
2026-04-22 23:53 -38.65794 147.16097 6985 ft 131 kts 174°
2026-04-22 23:54 -38.66711 147.16115 6986 ft 131 kts 174°
2026-04-22 23:54 -38.67636 147.16133 6985 ft 131 kts 174°
2026-04-22 23:54 -38.68543 147.16151 6986 ft 131 kts 174°
2026-04-22 23:54 -38.69467 147.16168 6988 ft 133 kts 175°
2026-04-22 23:55 -38.70392 147.16188 6984 ft 131 kts 173°
2026-04-22 23:55 -38.71299 147.16206 6985 ft 131 kts 175°
2026-04-22 23:55 -38.72218 147.16225 6987 ft 132 kts 174°
2026-04-22 23:55 -38.73131 147.16242 6985 ft 132 kts 175°
2026-04-22 23:56 -38.74054 147.16261 6986 ft 131 kts 174°
2026-04-22 23:56 -38.74974 147.16281 6987 ft 131 kts 175°
2026-04-22 23:56 -38.75887 147.16299 6987 ft 131 kts 175°
2026-04-22 23:56 -38.76805 147.16318 6986 ft 132 kts 174°
2026-04-22 23:57 -38.77724 147.16336 6985 ft 132 kts 174°
2026-04-22 23:57 -38.78639 147.16354 6985 ft 132 kts 174°
2026-04-22 23:57 -38.79566 147.16373 6984 ft 132 kts 175°
2026-04-22 23:57 -38.80482 147.16391 6984 ft 132 kts 174°
2026-04-22 23:58 -38.81403 147.16409 6986 ft 132 kts 174°
2026-04-22 23:58 -38.82316 147.16428 6985 ft 132 kts 174°
2026-04-22 23:58 -38.83240 147.16447 6985 ft 131 kts 174°
2026-04-22 23:58 -38.84151 147.16466 6985 ft 131 kts 174°
2026-04-22 23:59 -38.85067 147.16486 6986 ft 130 kts 173°
2026-04-22 23:59 -38.85968 147.16504 6986 ft 130 kts 174°
2026-04-22 23:59 -38.86889 147.16521 6987 ft 131 kts 175°
2026-04-22 23:59 -38.87800 147.16539 6988 ft 131 kts 175°
2026-04-23 00:00 -38.89642 147.16574 6989 ft 132 kts 175°
2026-04-23 00:00 -38.90569 147.16594 6989 ft 132 kts 175°
2026-04-23 00:00 -38.91494 147.16612 6990 ft 133 kts 175°
2026-04-23 00:01 -38.92415 147.16632 6986 ft 133 kts 174°
2026-04-23 00:01 -38.93353 147.16649 6988 ft 134 kts 174°
2026-04-23 00:01 -38.94282 147.16670 6986 ft 133 kts 174°
2026-04-23 00:01 -38.95216 147.16689 6986 ft 133 kts 174°
2026-04-23 00:02 -38.96136 147.16707 6989 ft 133 kts 174°
2026-04-23 00:02 -38.97064 147.16725 6989 ft 133 kts 174°
2026-04-23 00:02 -38.97987 147.16744 6991 ft 133 kts 175°
2026-04-23 00:02 -38.98915 147.16760 6989 ft 133 kts 174°
2026-04-23 00:03 -38.99838 147.16780 6989 ft 132 kts 174°
2026-04-23 00:03 -39.00755 147.16800 6994 ft 131 kts 174°
2026-04-23 00:03 -39.01669 147.16818 6998 ft 131 kts 175°
2026-04-23 00:03 -39.02585 147.16836 7002 ft 131 kts 175°
2026-04-23 00:04 -39.03511 147.16855 7004 ft 131 kts 175°
2026-04-23 00:04 -39.04418 147.16873 7007 ft 132 kts 175°
2026-04-23 00:04 -39.05345 147.16891 7005 ft 131 kts 175°
2026-04-23 00:04 -39.06256 147.16911 7006 ft 131 kts 175°
2026-04-23 00:05 -39.07167 147.16930 7004 ft 131 kts 175°
2026-04-23 00:05 -39.08083 147.16948 7006 ft 132 kts 175°
2026-04-23 00:05 -39.09005 147.16966 7006 ft 132 kts 175°
2026-04-23 00:05 -39.09913 147.16985 7003 ft 131 kts 175°
2026-04-23 00:06 -39.10830 147.17004 7004 ft 131 kts 175°
2026-04-23 00:06 -39.11739 147.17024 7007 ft 130 kts 175°
2026-04-23 00:06 -39.12649 147.17041 7008 ft 131 kts 175°
2026-04-23 00:06 -39.13573 147.17058 7014 ft 132 kts 175°
2026-04-23 00:07 -39.14487 147.17079 7010 ft 130 kts 175°
2026-04-23 00:07 -39.15396 147.17099 7002 ft 131 kts 175°
2026-04-23 00:07 -39.16320 147.17119 6998 ft 131 kts 175°
2026-04-23 00:07 -39.17226 147.17136 6994 ft 131 kts 175°
2026-04-23 00:08 -39.18142 147.17152 6992 ft 132 kts 174°
2026-04-23 00:08 -39.19058 147.17171 6990 ft 132 kts 174°
2026-04-23 00:08 -39.19981 147.17188 6991 ft 132 kts 175°
2026-04-23 00:08 -39.20900 147.17206 6987 ft 133 kts 175°
2026-04-23 00:09 -39.21828 147.17226 6988 ft 131 kts 174°
2026-04-23 00:09 -39.22752 147.17246 6979 ft 132 kts 174°
2026-04-23 00:09 -39.23668 147.17262 6985 ft 133 kts 174°
2026-04-23 00:09 -39.24594 147.17279 6989 ft 132 kts 174°
2026-04-23 00:10 -39.25513 147.17297 6989 ft 133 kts 174°
2026-04-23 00:10 -39.26438 147.17316 6990 ft 133 kts 174°
2026-04-23 00:10 -39.27371 147.17335 6987 ft 133 kts 174°
2026-04-23 00:10 -39.28297 147.17355 6988 ft 133 kts 175°
2026-04-23 00:11 -39.29218 147.17375 6989 ft 133 kts 175°
2026-04-23 00:11 -39.30147 147.17394 6989 ft 132 kts 175°
2026-04-23 00:11 -39.31070 147.17418 6987 ft 132 kts 174°
2026-04-23 00:11 -39.31981 147.17450 6986 ft 131 kts 173°
2026-04-23 00:12 -39.32908 147.17485 6984 ft 131 kts 173°
2026-04-23 00:12 -39.33816 147.17517 6985 ft 132 kts 173°
2026-04-23 00:12 -39.34740 147.17546 6986 ft 132 kts 174°
2026-04-23 00:12 -39.35662 147.17569 6984 ft 132 kts 174°
2026-04-23 00:13 -39.36580 147.17592 6984 ft 132 kts 173°
2026-04-23 00:13 -39.37493 147.17613 6986 ft 132 kts 174°
2026-04-23 00:13 -39.38427 147.17633 6984 ft 133 kts 173°
2026-04-23 00:13 -39.39354 147.17651 6982 ft 133 kts 173°
2026-04-23 00:14 -39.40272 147.17671 6983 ft 133 kts 174°
2026-04-23 00:14 -39.41203 147.17691 6983 ft 133 kts 174°
2026-04-23 00:14 -39.42130 147.17711 6984 ft 133 kts 175°
2026-04-23 00:14 -39.43058 147.17731 6985 ft 133 kts 175°
2026-04-23 00:15 -39.43979 147.17750 6987 ft 132 kts 175°
2026-04-23 00:15 -39.44908 147.17770 6985 ft 132 kts 175°
2026-04-23 00:15 -39.45833 147.17790 6982 ft 132 kts 176°
2026-04-23 00:15 -39.46748 147.17810 6985 ft 131 kts 176°
2026-04-23 00:16 -39.47662 147.17827 6984 ft 131 kts 176°
2026-04-23 00:16 -39.48582 147.17844 6984 ft 132 kts 176°
2026-04-23 00:16 -39.49488 147.17862 6985 ft 131 kts 176°
2026-04-23 00:16 -39.50403 147.17882 6985 ft 130 kts 176°
2026-04-23 00:17 -39.51318 147.17900 6986 ft 131 kts 176°
2026-04-23 00:17 -39.52230 147.17917 6984 ft 132 kts 176°
2026-04-23 00:17 -39.53151 147.17935 6982 ft 132 kts 176°
2026-04-23 00:17 -39.54077 147.17953 6985 ft 132 kts 176°
2026-04-23 00:18 -39.54995 147.17970 6983 ft 133 kts 176°
2026-04-23 00:18 -39.55928 147.17989 6986 ft 133 kts 175°
2026-04-23 00:18 -39.56847 147.18008 6985 ft 133 kts 177°
2026-04-23 00:18 -39.57779 147.18028 6985 ft 132 kts 177°
2026-04-23 00:19 -39.58700 147.18048 6988 ft 132 kts 178°
2026-04-23 00:19 -39.59626 147.18068 6989 ft 132 kts 178°
2026-04-23 00:19 -39.60549 147.18085 6984 ft 134 kts 179°
2026-04-23 00:19 -39.61485 147.18098 6986 ft 136 kts 179°
2026-04-23 00:20 -39.62439 147.18114 6991 ft 138 kts 178°
2026-04-23 00:20 -39.63409 147.18132 6992 ft 138 kts 178°
2026-04-23 00:20 -39.64376 147.18153 6989 ft 139 kts 178°
2026-04-23 00:20 -39.65338 147.18176 6989 ft 139 kts 178°
2026-04-23 00:21 -39.66314 147.18199 6987 ft 139 kts 178°
2026-04-23 00:21 -39.67275 147.18221 6986 ft 138 kts 178°
2026-04-23 00:21 -39.68234 147.18243 6987 ft 138 kts 178°
2026-04-23 00:21 -39.69204 147.18263 6986 ft 138 kts 178°
2026-04-23 00:22 -39.70159 147.18282 6990 ft 138 kts 178°
2026-04-23 00:22 -39.71114 147.18300 6988 ft 138 kts 179°
2026-04-23 00:22 -39.72082 147.18320 6989 ft 138 kts 179°
2026-04-23 00:22 -39.73037 147.18338 6986 ft 138 kts 179°
2026-04-23 00:23 -39.74008 147.18358 6988 ft 138 kts 179°
2026-04-23 00:23 -39.74961 147.18376 6988 ft 138 kts 179°
2026-04-23 00:23 -39.75922 147.18396 6990 ft 139 kts 179°
2026-04-23 00:23 -39.76900 147.18414 6990 ft 140 kts 179°
2026-04-23 00:24 -39.77869 147.18434 6986 ft 140 kts 178°
2026-04-23 00:24 -39.78847 147.18455 6985 ft 139 kts 179°
2026-04-23 00:24 -39.79813 147.18477 6986 ft 139 kts 179°
2026-04-23 00:24 -39.80778 147.18498 6987 ft 139 kts 178°
2026-04-23 00:25 -39.81752 147.18520 6986 ft 138 kts 178°
2026-04-23 00:25 -39.82713 147.18541 6987 ft 138 kts 178°
2026-04-23 00:25 -39.83675 147.18561 6986 ft 139 kts 178°
2026-04-23 00:25 -39.84655 147.18579 6984 ft 139 kts 178°
2026-04-23 00:26 -39.85624 147.18597 6983 ft 140 kts 179°
2026-04-23 00:26 -39.86593 147.18617 6983 ft 139 kts 178°
2026-04-23 00:26 -39.87563 147.18637 6986 ft 140 kts 179°
2026-04-23 00:26 -39.88550 147.18657 6988 ft 140 kts 178°
2026-04-23 00:27 -39.89529 147.18677 6986 ft 141 kts 179°
2026-04-23 00:27 -39.90505 147.18698 6985 ft 141 kts 178°
2026-04-23 00:27 -39.91483 147.18720 6978 ft 140 kts 179°
2026-04-23 00:27 -39.92466 147.18739 6983 ft 140 kts 179°
2026-04-23 00:28 -39.93438 147.18759 6988 ft 140 kts 178°
2026-04-23 00:28 -39.94423 147.18780 6986 ft 140 kts 178°
2026-04-23 00:28 -39.95396 147.18802 6986 ft 140 kts 178°
2026-04-23 00:28 -39.96362 147.18823 6986 ft 139 kts 179°
2026-04-23 00:29 -39.97331 147.18846 6984 ft 139 kts 179°
2026-04-23 00:29 -39.98311 147.18866 6982 ft 139 kts 179°
2026-04-23 00:29 -39.99280 147.18884 6983 ft 139 kts 179°
2026-04-23 00:29 -40.00248 147.18904 6983 ft 139 kts 178°
2026-04-23 00:30 -40.01216 147.18964 6985 ft 140 kts 175°
2026-04-23 00:30 -40.02200 147.19060 6984 ft 140 kts 174°
2026-04-23 00:30 -40.03171 147.19167 6984 ft 140 kts 175°
2026-04-23 00:30 -40.04144 147.19273 6984 ft 141 kts 174°
2026-04-23 00:31 -40.05119 147.19379 6985 ft 141 kts 175°
2026-04-23 00:31 -40.06105 147.19482 6987 ft 140 kts 175°
2026-04-23 00:31 -40.07075 147.19583 6986 ft 140 kts 175°
2026-04-23 00:31 -40.08043 147.19682 6985 ft 139 kts 175°
2026-04-23 00:32 -40.09007 147.19778 6984 ft 139 kts 175°
2026-04-23 00:32 -40.09981 147.19875 6986 ft 139 kts 175°
2026-04-23 00:32 -40.10951 147.19968 6984 ft 140 kts 176°
2026-04-23 00:32 -40.11929 147.20061 6987 ft 139 kts 175°
2026-04-23 00:33 -40.12893 147.20154 6988 ft 139 kts 174°
2026-04-23 00:33 -40.13865 147.20247 6993 ft 140 kts 175°
2026-04-23 00:33 -40.14837 147.20342 6993 ft 140 kts 175°
2026-04-23 00:33 -40.15808 147.20436 6994 ft 140 kts 175°
2026-04-23 00:34 -40.16782 147.20532 6992 ft 140 kts 176°
2026-04-23 00:34 -40.17755 147.20628 6992 ft 141 kts 176°
2026-04-23 00:34 -40.18743 147.20725 6992 ft 141 kts 176°
2026-04-23 00:34 -40.19717 147.20821 6994 ft 141 kts 176°
2026-04-23 00:35 -40.20696 147.20915 6993 ft 141 kts 176°
2026-04-23 00:35 -40.21688 147.21013 6994 ft 141 kts 175°
2026-04-23 00:35 -40.22664 147.21112 6994 ft 141 kts 175°
2026-04-23 00:35 -40.23642 147.21208 6989 ft 141 kts 176°
2026-04-23 00:36 -40.24628 147.21304 6986 ft 141 kts 176°
2026-04-23 00:36 -40.25602 147.21397 6991 ft 141 kts 176°
2026-04-23 00:36 -40.26594 147.21493 6994 ft 141 kts 176°
2026-04-23 00:36 -40.27577 147.21587 6994 ft 142 kts 175°
2026-04-23 00:37 -40.28566 147.21684 6992 ft 143 kts 176°
2026-04-23 00:37 -40.29556 147.21782 6990 ft 143 kts 176°
2026-04-23 00:37 -40.30557 147.21883 6987 ft 142 kts 176°
2026-04-23 00:37 -40.31543 147.21982 6984 ft 142 kts 176°
2026-04-23 00:38 -40.32528 147.22080 6989 ft 142 kts 176°
2026-04-23 00:38 -40.33510 147.22177 6979 ft 142 kts 176°
2026-04-23 00:38 -40.34493 147.22275 6980 ft 141 kts 176°
2026-04-23 00:38 -40.35482 147.22371 6985 ft 141 kts 176°
2026-04-23 00:39 -40.36458 147.22466 6984 ft 141 kts 177°
2026-04-23 00:39 -40.37452 147.22562 6986 ft 142 kts 177°
2026-04-23 00:39 -40.38436 147.22658 6983 ft 142 kts 178°
2026-04-23 00:39 -40.39417 147.22754 6983 ft 142 kts 176°
2026-04-23 00:40 -40.40396 147.22852 6984 ft 141 kts 176°
2026-04-23 00:40 -40.41389 147.22949 6986 ft 142 kts 176°
2026-04-23 00:40 -40.42370 147.23045 6986 ft 142 kts 176°
2026-04-23 00:40 -40.43364 147.23145 6986 ft 142 kts 176°
2026-04-23 00:41 -40.44350 147.23241 6985 ft 142 kts 177°
2026-04-23 00:41 -40.45339 147.23338 6987 ft 143 kts 177°
2026-04-23 00:41 -40.46331 147.23436 6985 ft 144 kts 178°
2026-04-23 00:41 -40.47342 147.23535 6981 ft 144 kts 177°
2026-04-23 00:42 -40.48334 147.23633 6980 ft 143 kts 177°
2026-04-23 00:42 -40.49335 147.23734 6980 ft 143 kts 177°
2026-04-23 00:42 -40.50319 147.23831 6983 ft 142 kts 178°
2026-04-23 00:42 -40.51300 147.23929 6988 ft 142 kts 178°
2026-04-23 00:43 -40.52297 147.24028 6987 ft 142 kts 177°
2026-04-23 00:43 -40.53284 147.24124 6987 ft 143 kts 176°
2026-04-23 00:43 -40.54276 147.24222 6984 ft 144 kts 177°
2026-04-23 00:43 -40.55280 147.24321 6983 ft 143 kts 176°
2026-04-23 00:44 -40.56273 147.24419 6983 ft 144 kts 176°
2026-04-23 00:44 -40.57283 147.24518 6984 ft 144 kts 176°
2026-04-23 00:44 -40.58278 147.24617 6985 ft 144 kts 176°
2026-04-23 00:44 -40.59285 147.24718 6986 ft 144 kts 176°
2026-04-23 00:45 -40.60280 147.24818 6983 ft 143 kts 177°
2026-04-23 00:45 -40.61270 147.24916 6985 ft 143 kts 177°
2026-04-23 00:45 -40.62275 147.25017 6985 ft 143 kts 177°
2026-04-23 00:45 -40.63265 147.25114 6984 ft 143 kts 177°
2026-04-23 00:46 -40.64259 147.25212 6990 ft 143 kts 178°
2026-04-23 00:46 -40.65250 147.25310 6993 ft 144 kts 178°
2026-04-23 00:46 -40.66262 147.25407 6992 ft 144 kts 178°
2026-04-23 00:46 -40.67255 147.25505 6992 ft 144 kts 177°
2026-04-23 00:47 -40.68265 147.25606 6992 ft 144 kts 178°
2026-04-23 00:47 -40.69261 147.25705 6996 ft 144 kts 178°
2026-04-23 00:47 -40.70274 147.25806 6997 ft 145 kts 178°
2026-04-23 00:47 -40.71275 147.25905 6996 ft 145 kts 178°
2026-04-23 00:48 -40.72293 147.26007 6995 ft 145 kts 178°
2026-04-23 00:48 -40.73299 147.26106 6995 ft 146 kts 177°
2026-04-23 00:48 -40.74312 147.26207 6994 ft 145 kts 177°
2026-04-23 00:48 -40.75321 147.26308 6999 ft 145 kts 177°
2026-04-23 00:49 -40.76337 147.26410 6997 ft 146 kts 177°
2026-04-23 00:49 -40.77341 147.26511 6996 ft 145 kts 178°
2026-04-23 00:49 -40.78360 147.26614 6995 ft 145 kts 178°
2026-04-23 00:49 -40.79357 147.26715 6995 ft 145 kts 177°
2026-04-23 00:50 -40.80363 147.26816 6993 ft 145 kts 178°
2026-04-23 00:50 -40.81383 147.26915 6992 ft 145 kts 178°
2026-04-23 00:50 -40.82386 147.27014 6989 ft 145 kts 178°
2026-04-23 00:50 -40.83401 147.27115 6987 ft 146 kts 177°
2026-04-23 00:51 -40.84418 147.27217 6985 ft 145 kts 178°
2026-04-23 00:51 -40.85421 147.27316 6985 ft 146 kts 178°
2026-04-23 00:51 -40.86432 147.27416 6985 ft 146 kts 179°
2026-04-23 00:51 -40.87461 147.27516 6989 ft 147 kts 178°
2026-04-23 00:52 -40.88478 147.27617 6987 ft 147 kts 179°
2026-04-23 00:52 -40.89510 147.27722 6986 ft 148 kts 178°
2026-04-23 00:52 -40.90533 147.27828 6984 ft 148 kts 179°
2026-04-23 00:52 -40.91567 147.27931 6981 ft 148 kts 178°
2026-04-23 00:53 -40.92601 147.28033 6983 ft 150 kts 179°
2026-04-23 00:53 -40.93631 147.28140 6985 ft 149 kts 177°
2026-04-23 00:53 -40.94678 147.28247 6988 ft 150 kts 178°
2026-04-23 00:53 -40.95708 147.28351 6988 ft 150 kts 179°
2026-04-23 00:54 -40.96753 147.28441 6987 ft 150 kts 180°
2026-04-23 00:54 -40.97797 147.28526 6991 ft 150 kts 179°
2026-04-23 00:54 -40.98853 147.28615 6989 ft 151 kts 180°
2026-04-23 00:54 -40.99899 147.28711 6984 ft 151 kts 179°
2026-04-23 00:55 -41.00963 147.28812 6983 ft 152 kts 179°
2026-04-23 00:55 -41.02004 147.28915 6980 ft 151 kts 179°
2026-04-23 00:55 -41.03057 147.29019 6974 ft 151 kts 179°
2026-04-23 00:55 -41.04104 147.29125 6982 ft 150 kts 179°
2026-04-23 00:56 -41.05144 147.29225 6986 ft 150 kts 179°
2026-04-23 00:56 -41.06181 147.29329 6985 ft 150 kts 180°
2026-04-23 00:56 -41.07229 147.29434 6989 ft 150 kts 179°
2026-04-23 00:56 -41.08264 147.29536 6982 ft 150 kts 179°
2026-04-23 00:57 -41.09320 147.29640 6984 ft 151 kts 179°
2026-04-23 00:57 -41.10367 147.29744 7004 ft 151 kts 179°
2026-04-23 00:57 -41.11426 147.29848 6973 ft 154 kts 178°
2026-04-23 00:57 -41.12490 147.29961 6983 ft 154 kts 178°
2026-04-23 00:58 -41.13552 147.30072 6983 ft 153 kts 178°
2026-04-23 00:58 -41.14617 147.30185 6981 ft 153 kts 178°
2026-04-23 00:58 -41.15696 147.30295 6980 ft 154 kts 179°
2026-04-23 00:58 -41.16761 147.30402 6984 ft 154 kts 179°
2026-04-23 00:59 -41.17841 147.30512 6983 ft 155 kts 179°
2026-04-23 00:59 -41.18914 147.30621 6985 ft 155 kts 178°
2026-04-23 00:59 -41.19985 147.30733 6988 ft 155 kts 179°
2026-04-23 00:59 -41.21066 147.30844 6986 ft 156 kts 179°
2026-04-23 01:00 -41.22160 147.30955 7000 ft 155 kts 178°
2026-04-23 01:00 -41.23219 147.31067 6991 ft 154 kts 178°
2026-04-23 01:00 -41.24312 147.31166 6940 ft 151 kts 174°
2026-04-23 01:00 -41.25177 147.31400 6122 ft 112 kts 157°
2026-04-23 01:01 -41.25869 147.31703 5281 ft 109 kts 164°
2026-04-23 01:01 -41.26548 147.32036 4730 ft 104 kts 160°
2026-04-23 01:01 -41.27156 147.32436 3756 ft 121 kts 115°
2026-04-23 01:01 -41.26922 147.32678 2597 ft 90 kts 303°
2026-04-23 01:02 -41.26812 147.32268 2039 ft 0 kts 308°